When you browse on this site, cookies collect data to enhance your experience and personalize the content and advertising you see.
Visit our Privacy Policy to learn more. By continuing to use the site, you agree to this use of cookies and data.
  • In Portugal
  • List of Countries
  • For 7 days
  • Water Temperature
  • Satellite Maps
  • Weather Map
  • Weather Widgets
  • user-avatar
    Login

    Hourly Weather Razgrad

    Today, 11 December, Tuesday

    Time Temperature Precipitation Wind Pressure Humidity
    00:00 0°C° 0.2 mm 4 mps 735 mmHg 88%
    01:00 0°C° 0.2 mm 5 mps 735 mmHg 87%
    02:00 0°C° 0.2 mm 5 mps 736 mmHg 86%
    03:00 0°C° 0.3 mm 5 mps 736 mmHg 86%
    04:00 0°C° 0.3 mm 5 mps 736 mmHg 86%
    05:00 0°C° 0.3 mm 5 mps 736 mmHg 86%
    06:00 0°C° 0.3 mm 5 mps 736 mmHg 87%
    07:00 -1°C° 0.3 mm 5 mps 737 mmHg 87%
    08:00 -1°C° 0.3 mm 5 mps 737 mmHg 87%
    09:00 0°C° 0.2 mm 5 mps 737 mmHg 86%
    10:00 0°C° 0.2 mm 5 mps 738 mmHg 85%
    11:00 0°C° 0.2 mm 5 mps 738 mmHg 84%
    12:00 0°C° 0.2 mm 4 mps 738 mmHg 83%
    13:00 +1°C° 0.2 mm 4 mps 738 mmHg 82%
    14:00 +1°C° 0.2 mm 4 mps 738 mmHg 82%
    15:00 +1°C° 0.2 mm 3 mps 739 mmHg 82%
    16:00 +1°C° 0.2 mm 3 mps 739 mmHg 81%
    17:00 +1°C° 0.2 mm 3 mps 740 mmHg 81%
    18:00 0°C° 0.1 mm 3 mps 740 mmHg 81%
    19:00 0°C° 0.1 mm 3 mps 740 mmHg 81%
    20:00 0°C° 0.1 mm 3 mps 740 mmHg 80%
    21:00 0°C° 0 mm 3 mps 740 mmHg 81%
    22:00 -1°C° 0 mm 3 mps 740 mmHg 81%
    23:00 -1°C° 0 mm 3 mps 741 mmHg 81%

    Tomorrow, 12 December, Wednesday

    Time Temperature Precipitation Wind Pressure Humidity
    00:00 -1°C° 0 mm 3 mps 741 mmHg 82%
    01:00 -1°C° 0 mm 3 mps 741 mmHg 83%
    02:00 -1°C° 0 mm 3 mps 741 mmHg 84%
    03:00 -1°C° 0.2 mm 3 mps 741 mmHg 85%
    04:00 -2°C° 0.2 mm 4 mps 741 mmHg 87%
    05:00 -2°C° 0.2 mm 4 mps 740 mmHg 89%
    06:00 -2°C° 0.2 mm 4 mps 741 mmHg 89%
    07:00 -2°C° 0.2 mm 4 mps 741 mmHg 90%
    08:00 -1°C° 0.2 mm 3 mps 741 mmHg 91%
    09:00 -2°C° 0.1 mm 4 mps 742 mmHg 89%
    10:00 -1°C° 0.1 mm 4 mps 742 mmHg 87%
    11:00 -1°C° 0.1 mm 4 mps 742 mmHg 85%
    12:00 0°C° 0 mm 4 mps 742 mmHg 84%
    13:00 0°C° 0 mm 4 mps 742 mmHg 83%
    14:00 +1°C° 0 mm 4 mps 742 mmHg 82%
    15:00 0°C° 0 mm 4 mps 742 mmHg 83%
    16:00 +1°C° 0 mm 3 mps 742 mmHg 84%
    17:00 0°C° 0 mm 3 mps 742 mmHg 85%
    18:00 0°C° 0 mm 3 mps 742 mmHg 84%
    19:00 0°C° 0 mm 3 mps 742 mmHg 82%
    20:00 0°C° 0 mm 3 mps 742 mmHg 81%
    21:00 -1°C° 0 mm 3 mps 743 mmHg 80%
    22:00 -1°C° 0 mm 3 mps 743 mmHg 78%
    23:00 -1°C° 0 mm 3 mps 743 mmHg 77%

    Day after tomorrow, 13 December, Thursday

    Time Temperature Precipitation Wind Pressure Humidity
    00:00 -1°C° 0 mm 3 mps 743 mmHg 77%
    01:00 -1°C° 0 mm 3 mps 743 mmHg 76%
    02:00 -1°C° 0 mm 3 mps 743 mmHg 76%
    03:00 -1°C° 0 mm 3 mps 743 mmHg 76%
    04:00 -1°C° 0 mm 3 mps 743 mmHg 77%
    05:00 -2°C° 0 mm 3 mps 743 mmHg 77%
    06:00 -2°C° 0 mm 3 mps 743 mmHg 77%
    07:00 -2°C° 0 mm 3 mps 743 mmHg 76%
    08:00 -2°C° 0 mm 3 mps 744 mmHg 76%
    09:00 0°C° 0 mm 3 mps 744 mmHg 72%
    10:00 +1°C° 0 mm 3 mps 744 mmHg 68%
    11:00 +2°C° 0 mm 3 mps 744 mmHg 64%
    12:00 +3°C° 0 mm 3 mps 743 mmHg 63%
    13:00 +4°C° 0 mm 2 mps 743 mmHg 62%
    14:00 +4°C° 0 mm 2 mps 743 mmHg 61%
    15:00 +3°C° 0 mm 2 mps 742 mmHg 64%
    16:00 +3°C° 0 mm 1 mps 742 mmHg 67%
    17:00 +2°C° 0 mm 1 mps 742 mmHg 69%
    18:00 +2°C° 0 mm 1 mps 742 mmHg 70%
    19:00 +2°C° 0 mm 1 mps 742 mmHg 70%
    20:00 +2°C° 0 mm 1 mps 742 mmHg 70%
    21:00 +2°C° 0.2 mm 1 mps 742 mmHg 73%
    22:00 +2°C° 0.2 mm 1 mps 742 mmHg 75%
    23:00 +2°C° 0.2 mm 1 mps 742 mmHg 77%

    14 December, Friday

    Time Temperature Precipitation Wind Pressure Humidity
    00:00 +2°C° 0.6 mm 1 mps 742 mmHg 79%
    01:00 +2°C° 0.6 mm 1 mps 741 mmHg 81%
    02:00 +2°C° 0.6 mm 1 mps 741 mmHg 83%
    03:00 +2°C° 0.6 mm 1 mps 742 mmHg 85%
    04:00 +2°C° 0.6 mm 1 mps 742 mmHg 86%
    05:00 +2°C° 0.6 mm 1 mps 742 mmHg 87%
    06:00 +2°C° 0.1 mm 1 mps 742 mmHg 88%
    07:00 +1°C° 0.1 mm 1 mps 743 mmHg 89%
    08:00 +1°C° 0.1 mm 1 mps 743 mmHg 89%
    09:00 +2°C° 0 mm 1 mps 743 mmHg 90%
    10:00 +2°C° 0 mm 1 mps 744 mmHg 90%
    11:00 +1°C° 0 mm 2 mps 744 mmHg 90%
    12:00 +3°C° 0 mm 1 mps 744 mmHg 89%
    13:00 +3°C° 0 mm 1 mps 744 mmHg 88%
    14:00 +3°C° 0 mm 1 mps 744 mmHg 87%
    15:00 +2°C° 0 mm 1 mps 745 mmHg 89%
    16:00 +1°C° 0 mm 1 mps 745 mmHg 90%
    17:00 0°C° 0 mm 1 mps 745 mmHg 91%
    18:00 0°C° 0 mm 1 mps 746 mmHg 91%
    19:00 0°C° 0 mm 1 mps 746 mmHg 90%
    20:00 -2°C° 0 mm 0 mps 747 mmHg 89%
    21:00 -2°C° 0 mm 0 mps 747 mmHg 88%
    22:00 -2°C° 0 mm 0 mps 747 mmHg 87%
    23:00 -2°C° 0 mm 0 mps 748 mmHg 87%

    15 December, Saturday

    Time Temperature Precipitation Wind Pressure Humidity
    00:00 -1°C° 0 mm 1 mps 748 mmHg 86%
    01:00 -1°C° 0 mm 1 mps 748 mmHg 86%
    02:00 -1°C° 0 mm 1 mps 748 mmHg 85%
    03:00 0°C° 0 mm 1 mps 748 mmHg 85%
    04:00 0°C° 0 mm 1 mps 748 mmHg 85%
    05:00 0°C° 0 mm 1 mps 748 mmHg 85%
    06:00 0°C° 0 mm 1 mps 748 mmHg 85%
    07:00 -2°C° 0 mm 2 mps 748 mmHg 84%
    08:00 -2°C° 0 mm 2 mps 748 mmHg 84%
    09:00 -1°C° 0.1 mm 2 mps 748 mmHg 84%
    10:00 +1°C° 0.1 mm 2 mps 749 mmHg 84%
    11:00 +1°C° 0.1 mm 2 mps 749 mmHg 84%
    12:00 +1°C° 0.4 mm 2 mps 748 mmHg 86%
    13:00 +2°C° 0.4 mm 2 mps 748 mmHg 89%
    14:00 +2°C° 0.4 mm 2 mps 748 mmHg 91%
    15:00 +1°C° 0.6 mm 3 mps 748 mmHg 93%
    16:00 +1°C° 0.6 mm 3 mps 748 mmHg 94%
    17:00 0°C° 0.6 mm 3 mps 748 mmHg 95%
    18:00 0°C° 0.7 mm 3 mps 748 mmHg 95%
    19:00 +1°C° 0.7 mm 3 mps 748 mmHg 96%
    20:00 +1°C° 0.7 mm 3 mps 748 mmHg 96%
    21:00 +1°C° 0.5 mm 3 mps 747 mmHg 96%
    22:00 +1°C° 0.5 mm 3 mps 747 mmHg 96%
    23:00 +1°C° 0.5 mm 3 mps 747 mmHg 97%

    16 December, Sunday

    Time Temperature Precipitation Wind Pressure Humidity
    00:00 +1°C° 0.6 mm 3 mps 747 mmHg 97%
    01:00 +1°C° 0.6 mm 3 mps 747 mmHg 97%
    02:00 +1°C° 0.6 mm 3 mps 746 mmHg 97%
    03:00 +1°C° 0.4 mm 3 mps 746 mmHg 97%
    04:00 0°C° 0.4 mm 3 mps 746 mmHg 97%
    05:00 0°C° 0.4 mm 3 mps 746 mmHg 97%
    06:00 0°C° 0.5 mm 3 mps 746 mmHg 97%
    07:00 0°C° 0.5 mm 3 mps 746 mmHg 96%
    08:00 0°C° 0.5 mm 3 mps 746 mmHg 96%
    09:00 0°C° 0.7 mm 3 mps 746 mmHg 96%
    10:00 0°C° 0.7 mm 3 mps 746 mmHg 96%
    11:00 0°C° 0.7 mm 3 mps 747 mmHg 96%
    12:00 -2°C° 0.8 mm 4 mps 746 mmHg 96%
    13:00 -2°C° 0.8 mm 4 mps 746 mmHg 96%
    14:00 -2°C° 0.8 mm 4 mps 746 mmHg 96%
    15:00 -1°C° 0.8 mm 3 mps 746 mmHg 96%
    16:00 -2°C° 0.8 mm 3 mps 746 mmHg 96%
    17:00 -2°C° 0.8 mm 3 mps 747 mmHg 96%
    18:00 -2°C° 0.9 mm 3 mps 747 mmHg 96%
    19:00 -2°C° 0.9 mm 3 mps 747 mmHg 96%
    20:00 -2°C° 0.9 mm 3 mps 747 mmHg 96%
    21:00 -2°C° 0.5 mm 3 mps 748 mmHg 96%
    22:00 -2°C° 0.5 mm 3 mps 748 mmHg 96%
    23:00 -2°C° 0.5 mm 3 mps 748 mmHg 96%
    Show more